New Sharon, Iowa
Current Conditions -  °F | °C
As of 3:15 AM on Friday 24 Oct 2014 (Local Time) from KPEA Reporting Station
Moderate Fog Moderate Fog  
Wind Chill: 53°   Ceiling: 100
Heat Index: 53°   Visibility: 0.25mi
Dew Point: 53°   Wind: 5mph
Humidity: 99%   Direction: 210°SSW
Pressure: 30.05"   Gusts: NA
Location:  41.47°N, 92.65°W
Report Text: KPEA 240815Z AUTO 21004KT 1/4SM FG OVC001 12/12 A3005 RMK AO2 T01180117
Loading
Personal Weather Stations






























Interactive Weather Map
Tropical Storm Tracking
New forecast layout! Learn more

10-Day Weather Forecast

Advertisements
Track Severe Weather on mobile